This demonstration page uses our WeatherBlox Daily Observations layout. Learn more.

Left ArrowRight Arrow

Hourly Observations for December 3, 2020

Temp ( °F °C ) Dew Point ( °F °C ) Humidity (%) Winds ( mph kmh ) Pressure ( in mb ) Visibility ( mi km ) Precip ( " mm )
12:15 am 00:15 Cloudy 32 0.2 26 -3.1 79 79 N 12 19 30.46 1032 10 16.0934 0 0
12:35 am 00:35 Cloudy 33 0.3 26 -3.1 78 78 N 9 15 30.46 1032 10 16.0934 0 0
12:55 am 00:55 Cloudy 32 0.2 27 -3 79 79 N 12 19 30.45 1031 10 16.0934 0 0
1:15 am 01:15 Cloudy 33 0.3 27 -3 79 79 N 9 15 30.44 1031 10 16.0934 0 0
1:35 am 01:35 Cloudy 33 0.3 27 -2.8 80 80 N 7 11 30.43 1031 10 16.0934 0 0
1:55 am 01:55 Cloudy 33 0.3 27 -2.7 81 81 N 8 13 30.43 1031 10 16.0934 0 0
2:15 am 02:15 Cloudy 33 0.3 26 -3.1 78 78 N 13 20 30.42 1030 10 16.0934 0 0
2:35 am 02:35 Cloudy 32 0.2 27 -3 79 79 N 9 15 30.43 1031 10 16.0934 0 0
2:55 am 02:55 Cloudy 32 0 26 -3.3 79 79 N 16 26 30.43 1030 10 16.0934 0 0
3:15 am 03:15 Cloudy 32 0 26 -3.4 78 78 N 9 15 30.42 1030 10 16.0934 0 0
3:35 am 03:35 Cloudy 31 -0.3 26 -3.5 79 79 N 3 6 30.42 1030 10 16.0934 0 0
3:55 am 03:55 Partly Cloudy 29 -1.6 24 -4.3 82 82 NNW 5 7 30.43 1031 10 16.0934 0 0
4:15 am 04:15 Clear 27 -3 23 -5.1 86 86 NW 5 7 30.44 1031 10 16.0934 0 0
4:35 am 04:35 Clear 24 -4.2 22 -5.8 89 89 WNW 5 7 30.45 1031 10 16.0934 0 0
4:55 am 04:55 Clear 23 -5 20 -6.5 89 89 WNW 8 13 30.45 1031 10 16.0934 0 0
5:15 am 05:15 Clear 23 -5 21 -6.3 91 91 WNW 8 13 30.45 1031 10 16.0934 0 0
5:35 am 05:35 Clear 20 -6.5 18 -7.7 91 91 WNW 6 9 30.46 1031 10 16.0934 0 0
5:55 am 05:55 Clear 20 -6.5 18 -7.6 92 92 NW 8 13 30.46 1031 10 16.0934 0 0
6:15 am 06:15 Clear 20 -6.7 18 -8 91 91 WNW 9 15 30.46 1032 10 16.0934 0 0
6:35 am 06:35 Clear 21 -6.3 19 -7.4 92 92 WNW 8 13 30.46 1031 10 16.0934 0 0
6:55 am 06:55 Clear 20 -6.4 18 -7.6 91 91 W 5 7 30.46 1031 10 16.0934 0 0
7:15 am 07:15 Clear 20 -6.9 18 -8 92 92 W 6 9 30.46 1032 10 16.0934 0 0
7:35 am 07:35 Clear 20 -6.7 18 -8 91 91 WNW 6 9 30.46 1032 10 16.0934 0 0
7:55 am 07:55 Sunny 21 -6 19 -7.3 91 91 WNW 9 15 30.46 1031 10 16.0934 0 0
8:15 am 08:15 Sunny 22 -5.8 19 -7.4 89 89 WNW 7 11 30.45 1031 10 16.0934 0 0
8:35 am 08:35 Sunny 23 -4.9 20 -6.9 86 86 WNW 7 11 30.44 1031 10 16.0934 0 0
8:55 am 08:55 Sunny 25 -3.9 21 -6.2 84 84 WNW 8 13 30.43 1031 10 16.0934 0 0
9:15 am 09:15 Sunny 27 -3 21 -6 80 80 WNW 8 13 30.43 1030 10 16.0934 0 0
9:35 am 09:35 Sunny 29 -1.8 23 -5.2 78 78 WNW 8 13 30.4 1030 10 16.0934 0 0
9:55 am 09:55 Sunny 30 -0.9 22 -5.4 72 72 NW 8 13 30.4 1030 10 16.0934 0 0
10:15 am 10:15 Sunny 32 0.2 22 -5.5 66 66 NW 8 13 30.38 1029 10 16.0934 0 0
10:35 am 10:35 Sunny 34 1 22 -5.6 62 62 WNW 7 11 30.38 1029 10 16.0934 0 0
10:55 am 10:55 Sunny 36 2.2 22 -5.6 57 57 WNW 7 11 30.34 1028 10 16.0934 0 0
11:15 am 11:15 Sunny 37 3 21 -6.1 52 52 NW 9 15 30.34 1027 10 16.0934 0 0
11:35 am 11:35 Sunny 38 3.4 20 -6.4 49 49 NW 12 19 30.32 1027 10 16.0934 0 0
11:55 am 11:55 Sunny 39 4 20 -6.9 45 45 WNW 9 15 30.3 1026 10 16.0934 0 0
12:15 pm 12:15 Sunny 40 4.7 18 -7.9 40 40 NW 12 19 30.28 1025 10 16.0934 0 0
12:35 pm 12:35 Sunny 41 5.2 17 -8.3 37 37 NW 12 19 30.27 1025 10 16.0934 0 0
12:55 pm 12:55 Sunny 42 5.6 15 -9.3 34 34 NW 9 15 30.25 1024 10 16.0934 0 0
1:15 pm 13:15 Sunny 43 6.2 15 -9.6 32 32 NW 9 15 30.24 1024 10 16.0934 0 0
1:35 pm 13:35 Sunny 45 7 14 -10.1 29 29 WNW 9 15 30.22 1023 10 16.0934 0 0
1:55 pm 13:55 Sunny 45 7 15 -9.5 30 30 NNW 9 15 30.21 1023 10 16.0934 0 0
2:15 pm 14:15 Sunny 46 7.5 17 -8.3 32 32 NW 12 19 30.2 1023 10 16.0934 0 0
2:35 pm 14:35 Sunny 46 7.8 19 -7.5 33 33 NW 8 13 30.18 1022 10 16.0934 0 0
2:55 pm 14:55 Sunny 46 7.8 18 -7.6 33 33 NW 12 19 30.17 1022 10 16.0934 0 0
3:15 pm 15:15 Sunny 47 8.1 18 -8 31 31 NW 8 13 30.16 1021 10 16.0934 0 0
3:35 pm 15:35 Sunny 47 8.1 17 -8.1 31 31 WNW 10 17 30.16 1021 10 16.0934 0 0
3:55 pm 15:55 Sunny 46 7.9 17 -8.1 32 32 WNW 10 17 30.16 1021 10 16.0934 0 0
4:15 pm 16:15 Sunny 46 7.6 17 -8.4 31 31 WNW 7 11 30.15 1021 10 16.0934 0 0
4:35 pm 16:35 Sunny 44 6.8 16 -8.7 32 32 WNW 6 9 30.16 1021 10 16.0934 0 0
4:55 pm 16:55 Sunny 42 5.5 16 -8.8 35 35 WNW 6 9 30.18 1022 10 16.0934 0 0
5:15 pm 17:15 Clear 40 4.7 15 -9.2 36 36 WNW 6 9 30.19 1022 10 16.0934 0 0
5:35 pm 17:35 Clear 39 4 15 -9.3 38 38 W 8 13 30.19 1022 10 16.0934 0 0
5:55 pm 17:55 Clear 38 3.1 15 -9.5 39 39 W 8 13 30.2 1023 10 16.0934 0 0
6:15 pm 18:15 Clear 38 3.2 15 -9.6 39 39 W 9 15 30.19 1023 10 16.0934 0 0
6:35 pm 18:35 Clear 37 2.7 14 -9.8 40 40 W 6 9 30.2 1023 10 16.0934 0 0
6:55 pm 18:55 Clear 34 0.9 14 -9.8 45 45 WNW 7 11 30.21 1023 10 16.0934 0 0
7:15 pm 19:15 Clear 35 1.8 15 -9.7 43 43 W 7 11 30.2 1023 10 16.0934 0 0
7:35 pm 19:35 Clear 32 0.1 14 -9.9 47 47 W 8 13 30.21 1023 10 16.0934 0 0
7:55 pm 19:55 Clear 31 -0.6 14 -10 49 49 W 8 13 30.22 1023 10 16.0934 0 0
8:15 pm 20:15 Clear 32 -0.2 15 -9.7 49 49 W 8 13 30.22 1023 10 16.0934 0 0
8:35 pm 20:35 Clear 32 0 15 -9.4 50 50 W 7 11 30.22 1023 10 16.0934 0 0
8:55 pm 20:55 Clear 32 0 15 -9.5 49 49 W 8 13 30.21 1023 10 16.0934 0 0
9:15 pm 21:15 Clear 33 0.5 15 -9.3 48 48 W 7 11 30.2 1023 10 16.0934 0 0
9:35 pm 21:35 Clear 32 0 16 -9.1 51 51 W 6 9 30.22 1023 10 16.0934 0 0
9:55 pm 21:55 Clear 32 -0.1 16 -9 52 52 W 7 11 30.21 1023 10 16.0934 0 0
10:15 pm 22:15 Clear 32 0 16 -9 51 51 W 7 11 30.21 1023 10 16.0934 0 0
10:35 pm 22:35 Clear 31 -0.3 16 -9 52 52 W 8 13 30.21 1023 10 16.0934 0 0
10:55 pm 22:55 Clear 32 -0.2 16 -9.1 52 52 W 7 11 30.21 1023 10 16.0934 0 0
11:15 pm 23:15 Clear 32 0 15 -9.5 49 49 W 7 11 30.2 1023 10 16.0934 0 0
11:35 pm 23:35 Clear 31 -0.7 15 -9.5 52 52 W 8 13 30.2 1023 10 16.0934 0 0
11:55 pm 23:55 Clear 31 -0.7 15 -9.5 52 52 W 8 13 30.2 1023 10 16.0934 0 0

Powered by AerisWeather